• In Netherlands
  • List of Countries
  • For 7 days
  • Water Temperature
  • Satellite Maps
  • Weather Map
  • Weather Widgets
  • user-avatar
    Login

    Hourly Weather Rechytsa

    Today, 25 April, Tuesday

    Time Temperature Precipitation Wind Pressure Humidity
    00:00 +1°C° 0 mm 2 mps 750 mmHg 86%
    01:00 +1°C° 0 mm 2 mps 750 mmHg 88%
    02:00 +1°C° 0 mm 2 mps 750 mmHg 90%
    03:00 -1°C° 0 mm 2 mps 750 mmHg 90%
    04:00 -1°C° 0 mm 2 mps 750 mmHg 90%
    05:00 -1°C° 0 mm 2 mps 751 mmHg 89%
    06:00 +2°C° 0 mm 2 mps 751 mmHg 80%
    07:00 +3°C° 0 mm 3 mps 751 mmHg 70%
    08:00 +5°C° 0 mm 3 mps 751 mmHg 59%
    09:00 +7°C° 0 mm 4 mps 751 mmHg 56%
    10:00 +8°C° 0 mm 4 mps 751 mmHg 52%
    11:00 +9°C° 0 mm 5 mps 751 mmHg 48%
    12:00 +10°C° 0 mm 5 mps 750 mmHg 48%
    13:00 +12°C° 0 mm 5 mps 750 mmHg 48%
    14:00 +13°C° 0 mm 5 mps 749 mmHg 47%
    15:00 +13°C° 0 mm 5 mps 749 mmHg 48%
    16:00 +13°C° 0 mm 4 mps 749 mmHg 49%
    17:00 +13°C° 0 mm 4 mps 748 mmHg 50%
    18:00 +12°C° 0 mm 4 mps 748 mmHg 54%
    19:00 +11°C° 0 mm 4 mps 748 mmHg 59%
    20:00 +10°C° 0 mm 4 mps 748 mmHg 63%
    21:00 +8°C° 0 mm 4 mps 748 mmHg 64%
    22:00 +8°C° 0 mm 5 mps 748 mmHg 66%
    23:00 +8°C° 0 mm 5 mps 748 mmHg 68%

    Tomorrow, 26 April, Wednesday

    Time Temperature Precipitation Wind Pressure Humidity
    00:00 +8°C° 0 mm 5 mps 748 mmHg 70%
    01:00 +8°C° 0 mm 5 mps 747 mmHg 72%
    02:00 +8°C° 0 mm 5 mps 747 mmHg 74%
    03:00 +8°C° 0 mm 5 mps 747 mmHg 77%
    04:00 +8°C° 0 mm 5 mps 747 mmHg 80%
    05:00 +7°C° 0 mm 5 mps 747 mmHg 83%
    06:00 +8°C° 0 mm 5 mps 747 mmHg 78%
    07:00 +10°C° 0 mm 5 mps 747 mmHg 73%
    08:00 +11°C° 0 mm 6 mps 747 mmHg 68%
    09:00 +13°C° 0 mm 6 mps 747 mmHg 65%
    10:00 +14°C° 0 mm 6 mps 747 mmHg 62%
    11:00 +14°C° 0 mm 6 mps 747 mmHg 60%
    12:00 +16°C° 0 mm 6 mps 747 mmHg 55%
    13:00 +17°C° 0 mm 7 mps 747 mmHg 50%
    14:00 +20°C° 0 mm 7 mps 747 mmHg 45%
    15:00 +19°C° 0.2 mm 6 mps 747 mmHg 50%
    16:00 +17°C° 0.2 mm 6 mps 747 mmHg 54%
    17:00 +17°C° 0.2 mm 5 mps 747 mmHg 59%
    18:00 +15°C° 0.6 mm 4 mps 748 mmHg 66%
    19:00 +14°C° 0.6 mm 4 mps 748 mmHg 74%
    20:00 +13°C° 0.6 mm 3 mps 748 mmHg 82%
    21:00 +12°C° 0.3 mm 3 mps 749 mmHg 82%
    22:00 +11°C° 0.3 mm 3 mps 749 mmHg 83%
    23:00 +11°C° 0.3 mm 3 mps 749 mmHg 84%

    Day after tomorrow, 27 April, Thursday

    Time Temperature Precipitation Wind Pressure Humidity
    00:00 +10°C° 0 mm 3 mps 749 mmHg 84%
    01:00 +10°C° 0 mm 3 mps 749 mmHg 85%
    02:00 +10°C° 0 mm 3 mps 749 mmHg 85%
    03:00 +8°C° 0 mm 4 mps 749 mmHg 85%
    04:00 +8°C° 0 mm 4 mps 749 mmHg 85%
    05:00 +7°C° 0 mm 4 mps 748 mmHg 85%
    06:00 +8°C° 0 mm 4 mps 748 mmHg 81%
    07:00 +9°C° 0 mm 5 mps 748 mmHg 77%
    08:00 +10°C° 0 mm 5 mps 748 mmHg 73%
    09:00 +13°C° 0 mm 5 mps 748 mmHg 66%
    10:00 +15°C° 0 mm 5 mps 748 mmHg 59%
    11:00 +17°C° 0 mm 6 mps 747 mmHg 53%
    12:00 +19°C° 0 mm 6 mps 747 mmHg 49%
    13:00 +20°C° 0 mm 7 mps 747 mmHg 45%
    14:00 +22°C° 0 mm 7 mps 746 mmHg 41%
    15:00 +21°C° 0 mm 6 mps 747 mmHg 46%
    16:00 +20°C° 0 mm 5 mps 747 mmHg 51%
    17:00 +19°C° 0 mm 4 mps 747 mmHg 56%
    18:00 +17°C° 0.1 mm 3 mps 747 mmHg 63%
    19:00 +16°C° 0.1 mm 3 mps 748 mmHg 70%
    20:00 +15°C° 0.1 mm 2 mps 748 mmHg 78%
    21:00 +14°C° 0.2 mm 2 mps 749 mmHg 82%
    22:00 +13°C° 0.2 mm 2 mps 749 mmHg 86%
    23:00 +12°C° 0.2 mm 1 mps 750 mmHg 91%

    28 April, Friday

    Time Temperature Precipitation Wind Pressure Humidity
    00:00 +12°C° 0.1 mm 1 mps 750 mmHg 92%
    01:00 +10°C° 0.1 mm 2 mps 750 mmHg 92%
    02:00 +10°C° 0.1 mm 2 mps 750 mmHg 93%
    03:00 +9°C° 0.2 mm 2 mps 750 mmHg 93%
    04:00 +9°C° 0.2 mm 2 mps 750 mmHg 93%
    05:00 +9°C° 0.2 mm 2 mps 750 mmHg 93%
    06:00 +9°C° 0.3 mm 3 mps 750 mmHg 91%
    07:00 +9°C° 0.3 mm 3 mps 750 mmHg 89%
    08:00 +10°C° 0.3 mm 3 mps 750 mmHg 87%
    09:00 +11°C° 0.3 mm 3 mps 749 mmHg 80%
    10:00 +13°C° 0.3 mm 3 mps 749 mmHg 73%
    11:00 +14°C° 0.3 mm 3 mps 749 mmHg 66%
    12:00 +17°C° 0 mm 4 mps 748 mmHg 60%
    13:00 +19°C° 0 mm 4 mps 748 mmHg 53%
    14:00 +22°C° 0 mm 5 mps 747 mmHg 46%
    15:00 +21°C° 0 mm 4 mps 747 mmHg 48%
    16:00 +21°C° 0 mm 4 mps 747 mmHg 50%
    17:00 +21°C° 0 mm 3 mps 746 mmHg 52%
    18:00 +20°C° 0 mm 4 mps 746 mmHg 53%
    19:00 +18°C° 0 mm 4 mps 746 mmHg 55%
    20:00 +15°C° 0 mm 4 mps 746 mmHg 56%
    21:00 +15°C° 0 mm 4 mps 746 mmHg 58%
    22:00 +14°C° 0 mm 4 mps 746 mmHg 59%
    23:00 +14°C° 0 mm 4 mps 746 mmHg 61%

    29 April, Saturday

    Time Temperature Precipitation Wind Pressure Humidity
    00:00 +13°C° 0 mm 4 mps 746 mmHg 62%
    01:00 +12°C° 0 mm 4 mps 746 mmHg 64%
    02:00 +12°C° 0 mm 4 mps 745 mmHg 65%
    03:00 +11°C° 0.1 mm 4 mps 745 mmHg 64%
    04:00 +11°C° 0.1 mm 4 mps 745 mmHg 63%
    05:00 +11°C° 0.1 mm 4 mps 745 mmHg 62%
    06:00 +12°C° 0 mm 4 mps 745 mmHg 60%
    07:00 +13°C° 0 mm 5 mps 745 mmHg 57%
    08:00 +14°C° 0 mm 5 mps 745 mmHg 54%
    09:00 +15°C° 0 mm 5 mps 745 mmHg 53%
    10:00 +18°C° 0 mm 4 mps 746 mmHg 52%
    11:00 +19°C° 0 mm 4 mps 746 mmHg 50%
    12:00 +19°C° 0.1 mm 4 mps 746 mmHg 53%
    13:00 +19°C° 0.1 mm 4 mps 746 mmHg 57%
    14:00 +20°C° 0.1 mm 4 mps 746 mmHg 60%
    15:00 +18°C° 0.3 mm 3 mps 747 mmHg 68%
    16:00 +17°C° 0.3 mm 3 mps 747 mmHg 76%
    17:00 +14°C° 0.3 mm 3 mps 747 mmHg 84%
    18:00 +14°C° 0.4 mm 2 mps 747 mmHg 86%
    19:00 +13°C° 0.4 mm 2 mps 748 mmHg 89%
    20:00 +12°C° 0.4 mm 2 mps 749 mmHg 91%
    21:00 +12°C° 0.2 mm 2 mps 749 mmHg 92%
    22:00 +12°C° 0.2 mm 2 mps 749 mmHg 92%
    23:00 +11°C° 0.2 mm 1 mps 749 mmHg 93%

    30 April, Sunday

    Time Temperature Precipitation Wind Pressure Humidity
    00:00 +10°C° 0.8 mm 2 mps 750 mmHg 93%
    01:00 +9°C° 0.8 mm 2 mps 750 mmHg 93%
    02:00 +8°C° 0.8 mm 2 mps 751 mmHg 93%
    03:00 +8°C° 0.6 mm 2 mps 751 mmHg 93%
    04:00 +8°C° 0.6 mm 2 mps 751 mmHg 93%
    05:00 +7°C° 0.6 mm 2 mps 751 mmHg 93%
    06:00 +7°C° 0.8 mm 2 mps 752 mmHg 92%
    07:00 +7°C° 0.8 mm 2 mps 753 mmHg 92%
    08:00 +7°C° 0.8 mm 2 mps 753 mmHg 91%
    09:00 +8°C° 0.1 mm 2 mps 753 mmHg 85%
    10:00 +9°C° 0.1 mm 2 mps 754 mmHg 80%
    11:00 +10°C° 0.1 mm 2 mps 754 mmHg 74%
    12:00 +12°C° 0 mm 2 mps 754 mmHg 66%
    13:00 +14°C° 0 mm 2 mps 754 mmHg 57%
    14:00 +15°C° 0 mm 2 mps 754 mmHg 49%
    15:00 +15°C° 0 mm 2 mps 754 mmHg 50%
    16:00 +15°C° 0 mm 2 mps 754 mmHg 50%
    17:00 +15°C° 0 mm 1 mps 754 mmHg 51%
    18:00 +13°C° 0 mm 1 mps 755 mmHg 58%
    19:00 +11°C° 0 mm 1 mps 755 mmHg 65%
    20:00 +9°C° 0 mm 1 mps 755 mmHg 73%
    21:00 +9°C° 0 mm 1 mps 755 mmHg 75%
    22:00 +8°C° 0 mm 1 mps 756 mmHg 77%
    23:00 +8°C° 0 mm 1 mps 756 mmHg 79%
    Show more